"2010-08-25 00:00:00",101101,3.944,46.03,4.418,0.598,19.25,108.452,20.92,21.81,43.4,0,111.1,13.12,21.74,8.0
"2010-08-25 00:00:30",101102,3.058,33.36,6.006,0.647,19.29,108.4529,20.92,21.81,43.46,0,111.1,13.13,21.75,355.4
"2010-08-25 00:01:00",101103,3.433,34.91,3.195,0.586,19.22,108.4498,20.91,21.78,43.74,0,111.1,13.13,21.74,356.9
"2010-08-25 00:01:30",101104,4.459,36.64,3.189,0.528,19.25,108.4328,20.87,21.75,43.82,0,111.1,13.13,21.69,358.6
"2010-08-25 00:02:00",101105,3.567,30.73,8.75,0.402,19.34,108.4301,20.86,21.76,44.08,0,111.1,13.13,21.69,352.7
"2010-08-25 00:02:30",101106,4.13,47.69,4.412,0.265,19.38,108.4313,20.87,21.75,43.75,0,111.1,13.13,21.69,9.7
"2010-08-25 00:03:00",101107,4.693,59.55,3.723,0.268,19.49,108.451,20.92,21.76,43.19,0,111.1,13.13,21.74,21.5
"2010-08-25 00:03:30",101108,4.477,60.35,8.76,0.382,19.47,108.4569,20.93,21.77,42.99,0,111.1,13.13,21.76,22.3
"2010-08-25 00:04:00",101109,4.543,65.24,4.727,0.306,19.5,108.4569,20.93,21.77,42.6,0,111.1,13.13,21.76,27.2
"2010-08-25 00:04:30",101110,3.101,68.21,7.547,0.463,19.31,108.4569,20.93,21.8,43.85,0,111.1,13.13,21.76,30.2
"2010-08-25 00:05:00",101111,1.876,74.1,11.33,0.327,19.26,108.4482,20.91,21.77,44.01,0,111.1,13.13,21.73,36.1
"2010-08-25 00:05:30",101112,2.976,52.35,6.208,0.16,19.25,108.4319,20.87,21.77,43.5,0,111.1,13.13,21.69,14.3
"2010-08-25 00:06:00",101113,2.836,39.88,4.257,0.356,19.27,108.4322,20.87,21.76,44.11,0,111.1,13.13,21.69,1.9
"2010-08-25 00:06:30",101114,2.836,41.29,4.196,0.193,19.24,108.4411,20.89,21.76,44.46,0,111.1,13.13,21.72,3.3
"2010-08-25 00:07:00",101115,2.886,42.16,3.937,0.221,19.29,108.4555,20.93,21.76,43.44,0,111.1,13.13,21.75,4.2
"2010-08-25 00:07:30",101116,2.869,41.08,13.63,0.406,19.31,108.4569,20.93,21.77,43.08,0,111.1,13.13,21.76,3.1
"2010-08-25 00:08:00",101117,2.528,28.94,7.382,0.403,19.36,108.4571,20.93,21.78,44.09,0,111.1,13.13,21.76,350.9
"2010-08-25 00:08:30",101118,2.707,18.62,7.801,0.719,19.45,108.4793,20.99,21.8,43.83,0,111.1,13.13,21.81,340.6
"2010-08-25 00:09:00",101119,2.761,35.38,10.19,0.458,19.35,108.4906,21.02,21.82,42.68,0,111.1,13.13,21.84,357.4
"2010-08-25 00:09:30",101120,2.94,47.69,4.348,0.121,19.3,108.4906,21.02,21.84,42.39,0,111.1,13.13,21.84,9.7
"2010-08-25 00:10:00",101121,2.947,52.48,4.995,0.206,19.28,108.4906,21.02,21.86,42,0,111.1,13.13,21.84,14.5
"2010-08-25 00:10:30",101122,3.107,54.37,2.685,0.219,19.28,108.4906,21.02,21.86,41.99,0,111.1,13.13,21.84,16.4
"2010-08-25 00:11:00",101123,3.197,58.66,2.462,0.108,19.38,108.4906,21.02,21.88,41.82,0,111.1,13.13,21.84,20.7
"2010-08-25 00:11:30",101124,3.248,58.39,5.874,0.171,19.42,108.4956,21.03,21.9,41.62,0,111.1,13.12,21.86,20.4
"2010-08-25 00:12:00",101125,3.501,55.24,3.9,0.158,19.43,108.5001,21.04,21.9,41.55,0,111.1,13.12,21.87,17.2
"2010-08-25 00:12:30",101126,2.525,58.88,3.133,0.366,19.43,108.5074,21.06,21.91,41.72,0,111.1,13.13,21.89,20.9
"2010-08-25 00:13:00",101127,2.438,52.37,7.995,0.297,19.38,108.5074,21.06,21.91,42.08,0,111.1,13.13,21.89,14.4
"2010-08-25 00:13:30",101128,2.789,38.72,6.075,0.262,19.34,108.5021,21.05,21.92,42.96,0,111.1,13.13,21.87,0.7
"2010-08-25 00:14:00",101129,2.767,40.42,4.118,0.214,19.31,108.4998,21.04,21.92,43.31,0,111.1,13.13,21.87,2.4
"2010-08-25 00:14:30",101130,2.287,28.04,3.381,0.249,19.25,108.5066,21.06,21.92,43.95,0,111.1,13.12,21.89,350.0
"2010-08-25 00:15:00",101131,2.55,29.87,3.465,0.344,19.32,108.5088,21.07,21.93,44.1,0,111.1,13.13,21.89,351.9
"2010-08-25 00:15:30",101132,1.974,13.6,10.88,0.425,19.36,108.5063,21.06,21.91,43.81,0,111.1,13.13,21.88,335.6
"2010-08-25 00:16:00",101133,2.261,18.93,4.642,0.457,19.29,108.5243,21.1,21.94,43.88,0,111.1,13.13,21.93,340.9
"2010-08-25 00:16:30",101134,1.288,10.12,12.69,0.589,19.48,108.5276,21.11,21.97,44.09,0,111.1,13.13,21.94,332.1
"2010-08-25 00:17:00",101135,2.633,18.27,4.784,0.54,19.29,108.5324,21.13,21.98,43.61,0,111.1,13.13,21.95,340.3
"2010-08-25 00:17:30",101136,2.064,21.12,5.352,0.486,19.3,108.5251,21.11,21.97,43.17,0,111.1,13.13,21.93,343.1
"2010-08-25 00:18:00",101137,2.794,18.15,4.664,0.687,19.32,108.5243,21.1,21.99,43.64,0,111.1,13.13,21.93,340.1
"2010-08-25 00:18:30",101138,2.835,32.7,5.17,0.275,19.26,108.5243,21.1,21.97,43.03,0,111.1,13.13,21.93,354.7
"2010-08-25 00:19:00",101139,2.457,39.72,2.899,0.205,19.25,108.5243,21.1,21.97,43.01,0,111.1,13.13,21.93,1.7
"2010-08-25 00:19:30",101140,2.19,37.3,1.634,0.207,19.25,108.5243,21.1,21.98,43,0,111.1,13.13,21.93,359.3
"2010-08-25 00:20:00",101141,2.147,29.64,7.76,0.326,19.27,108.5038,21.05,21.96,43.02,0,111.1,13.13,21.88,351.6
"2010-08-25 00:20:30",101142,2.453,22.65,5.815,0.361,19.33,108.4973,21.04,21.96,43.29,0,111.1,13.13,21.86,344.6
"2010-08-25 00:21:00",101143,2.773,27.86,6.975,0.389,19.34,108.5046,21.05,21.96,43.04,0,111.1,13.13,21.88,349.9
"2010-08-25 00:21:30",101144,3.213,29.63,5.217,0.397,19.33,108.4962,21.03,21.95,43.2,0,111.1,13.13,21.86,351.6
"2010-08-25 00:22:00",101145,2.643,19.32,6.931,0.636,19.37,108.4939,21.03,21.93,43.89,0,111.1,13.13,21.85,341.3
"2010-08-25 00:22:30",101146,3.58,29.93,8.58,0.495,19.34,108.4928,21.02,21.92,43.65,0,111.1,13.13,21.85,351.9
"2010-08-25 00:23:00",101147,4.136,38.73,5.732,0.273,19.38,108.4906,21.02,21.91,43.12,0,111.1,13.13,21.84,0.7
"2010-08-25 00:23:30",101148,3.646,33.89,4.825,0.534,19.4,108.4883,21.01,21.9,43.6,0,111.1,13.13,21.84,355.9
"2010-08-25 00:24:00",101149,3.308,28.15,6.053,0.494,19.36,108.4706,20.97,21.9,44.28,0,111.1,13.13,21.79,350.1
"2010-08-25 00:24:30",101150,3.437,36.05,5.065,0.296,19.38,108.4569,20.93,21.86,44.11,0,111.1,13.13,21.76,358.0
"2010-08-25 00:25:00",101151,3.202,29.99,4.957,0.378,19.43,108.4569,20.93,21.85,44.2,0,111.1,13.13,21.76,352.0
"2010-08-25 00:25:30",101152,3.629,31.89,1.81,0.238,19.44,108.4572,20.93,21.84,43.4,0,111.1,13.13,21.76,353.9
"2010-08-25 00:26:00",101153,3.253,34.66,3.207,0.314,19.47,108.4572,20.93,21.83,42.68,0,111.1,13.13,21.76,356.7
"2010-08-25 00:26:30",101154,3.344,34.69,5.215,0.432,19.43,108.459,20.94,21.84,42.92,0,111.1,13.13,21.76,356.7
"2010-08-25 00:27:00",101155,3.084,28.17,5.967,0.486,19.5,108.4628,20.95,21.85,42.71,0,111.1,13.13,21.77,350.2
"2010-08-25 00:27:30",101156,3.585,25.24,5.692,0.575,19.36,108.4834,21,21.87,43.34,0,111.1,13.13,21.83,347.2
"2010-08-25 00:28:00",101157,3.095,32.37,5.745,0.583,19.38,108.4749,20.98,21.87,43.97,0,111.1,13.13,21.80,354.4
"2010-08-25 00:28:30",101158,3.408,22.09,3.663,0.424,19.44,108.4687,20.96,21.86,43.79,0,111.1,13.13,21.79,344.1
"2010-08-25 00:29:00",101159,3.012,20.94,9.65,0.789,19.5,108.4733,20.97,21.86,43.91,0,111.1,13.13,21.80,342.9
"2010-08-25 00:29:30",101160,3.437,23.09,3.949,0.324,19.51,108.4818,21,21.87,43.14,0,111.1,13.13,21.82,345.1
"2010-08-25 00:30:00",101161,4.209,25.54,7.663,0.441,19.43,108.5023,21.05,21.86,43.53,0,111.1,13.13,21.87,347.5
"2010-08-25 00:30:30",101162,2.857,15.12,9.89,1.04,19.57,108.5136,21.08,21.88,43.36,0,111.1,13.13,21.90,337.1
"2010-08-25 00:31:00",101163,3.235,28.75,2.551,0.34,19.46,108.5162,21.08,21.9,43.73,0,111.1,13.13,21.91,350.8
"2010-08-25 00:31:30",101164,2.933,31.99,3.721,0.282,19.42,108.5002,21.04,21.88,43.9,0,111.1,13.13,21.87,354.0
"2010-08-25 00:32:00",101165,2.61,24.29,14.22,0.613,19.44,108.4843,21,21.87,43.8,0,111.1,13.13,21.83,346.3
"2010-08-25 00:32:30",101166,2.097,13.76,10.51,0.758,19.51,108.4855,21.01,21.88,43.76,0,111.1,13.13,21.83,335.8
"2010-08-25 00:33:00",101167,2.896,24.34,3.639,0.238,19.43,108.4871,21.01,21.88,43.8,0,111.1,13.13,21.83,346.3
"2010-08-25 00:33:30",101168,3.097,24.42,3.535,0.443,19.45,108.4861,21.01,21.86,43.6,0,111.1,13.13,21.83,346.4
"2010-08-25 00:34:00",101169,3.059,23.69,2.795,0.248,19.48,108.4873,21.01,21.86,43.41,0,111.1,13.13,21.84,345.7
"2010-08-25 00:34:30",101170,3.393,23.07,3.608,0.382,19.5,108.4864,21.01,21.87,43.16,0,111.1,13.13,21.83,345.1
"2010-08-25 00:35:00",101171,3.449,28,6.926,0.383,19.55,108.4879,21.01,21.86,42.88,0,111.1,13.14,21.84,350.0
"2010-08-25 00:35:30",101172,2.631,32.84,4.622,0.417,19.62,108.4895,21.02,21.86,42.28,0,111.1,13.14,21.84,354.8
"2010-08-25 00:36:00",101173,2.692,28.26,4.021,0.204,19.51,108.4916,21.02,21.87,42.73,0,111.1,13.14,21.85,350.3
"2010-08-25 00:36:30",101174,2.651,27.12,4.34,0.368,19.47,108.4928,21.02,21.86,43.05,0,111.1,13.14,21.85,349.1
"2010-08-25 00:37:00",101175,2.317,22.51,7.302,0.333,19.54,108.4835,21,21.84,42.96,0,111.1,13.14,21.83,344.5
"2010-08-25 00:37:30",101176,2.791,22.51,4.136,0.339,19.53,108.4934,21.03,21.84,42.55,0,111.1,13.14,21.85,344.5
"2010-08-25 00:38:00",101177,2.695,27.17,6.523,0.224,19.52,108.5097,21.07,21.87,42.31,0,111.1,13.14,21.89,349.2
"2010-08-25 00:38:30",101178,2.334,36.76,2.326,0.282,19.48,108.5198,21.09,21.89,42.34,0,111.1,13.14,21.92,358.8
"2010-08-25 00:39:00",101179,2.408,31.56,4.923,0.255,19.49,108.5094,21.07,21.89,42.41,0,111.1,13.14,21.89,353.6
"2010-08-25 00:39:30",101180,2.124,30.19,4.204,0.183,19.49,108.5061,21.06,21.89,42.27,0,111.1,13.14,21.88,352.2
"2010-08-25 00:40:00",101181,2.513,34.02,3.356,0.395,19.52,108.5145,21.08,21.9,42.01,0,111.1,13.14,21.91,356.0
"2010-08-25 00:40:30",101182,2.174,38.34,5.021,0.279,19.49,108.5061,21.06,21.9,42.05,0,111.1,13.14,21.88,0.3
"2010-08-25 00:41:00",101183,1.793,31.61,10.67,0.344,19.48,108.4937,21.03,21.9,42.27,0,111.1,13.14,21.85,353.6
"2010-08-25 00:41:30",101184,1.795,27.1,5.505,0.263,19.48,108.5018,21.05,21.9,42.28,0,111.1,13.14,21.87,349.1
"2010-08-25 00:42:00",101185,1.935,30.42,3.764,0.338,19.49,108.5058,21.06,21.9,42.25,0,111.1,13.14,21.88,352.4
"2010-08-25 00:42:30",101186,1.933,27.88,2.954,0.239,19.44,108.494,21.03,21.9,42.31,0,111.1,13.14,21.85,349.9
"2010-08-25 00:43:00",101187,1.822,31.97,5.779,0.271,19.39,108.4934,21.03,21.9,42.31,0,111.1,13.14,21.85,354.0
"2010-08-25 00:43:30",101188,1.917,29.08,3.079,0.235,19.47,108.4934,21.03,21.88,42.24,0,111.1,13.14,21.85,351.1
"2010-08-25 00:44:00",101189,1.946,26.05,4.497,0.219,19.44,108.4934,21.03,21.87,42.18,0,111.1,13.14,21.85,348.0
"2010-08-25 00:44:30",101190,2.192,28.19,3.395,0.231,19.44,108.4934,21.03,21.88,42.19,0,111.1,13.14,21.85,350.2
"2010-08-25 00:45:00",101191,2.54,23.68,3.104,0.241,19.46,108.4934,21.03,21.89,42.27,0,111.1,13.14,21.85,345.7
"2010-08-25 00:45:30",101192,2.267,26.84,10.08,0.287,19.54,108.4934,21.03,21.89,42.1,0,111.1,13.14,21.85,348.8
"2010-08-25 00:46:00",101193,2.278,22.38,3.225,0.181,19.49,108.5016,21.05,21.91,42.17,0,111.1,13.14,21.87,344.4
"2010-08-25 00:46:30",101194,2.449,22.05,2.773,0.166,19.52,108.5142,21.08,21.91,42.07,0,111.1,13.14,21.90,344.0
"2010-08-25 00:47:00",101195,2.321,20.48,2.892,0.093,19.57,108.5226,21.1,21.92,41.89,0,111.1,13.13,21.93,342.5
"2010-08-25 00:47:30",101196,2.282,19.81,3.733,0.331,19.56,108.5271,21.11,21.93,41.92,0,111.1,13.13,21.94,341.8
"2010-08-25 00:48:00",101197,2.412,15.77,5.682,0.261,19.65,108.5277,21.11,21.96,41.7,0,111.1,13.13,21.94,337.8
"2010-08-25 00:48:30",101198,2.203,22.41,2.183,0.122,19.64,108.5353,21.13,21.97,41.58,0,111.1,13.13,21.96,344.4
"2010-08-25 00:49:00",101199,2.01,23.35,2.636,0.172,19.62,108.5364,21.14,21.97,41.43,0,111.1,13.13,21.96,345.4
"2010-08-25 00:49:30",101200,2.25,21.75,3.787,0.195,19.61,108.5364,21.14,22,41.56,0,111.1,13.13,21.96,343.8
"2010-08-25 00:50:00",101201,2.117,22.53,3.092,0.212,19.63,108.5372,21.14,21.99,41.54,0,111.1,13.13,21.96,344.5
"2010-08-25 00:50:30",101202,2.288,20.99,2.869,0.362,19.6,108.5364,21.14,22.01,41.74,0,111.1,13.13,21.96,343.0
"2010-08-25 00:51:00",101203,2.437,23.38,3.879,0.295,19.66,108.5291,21.12,22,41.62,0,111.1,13.14,21.94,345.4
"2010-08-25 00:51:30",101204,2.617,17.4,2.107,0.234,19.63,108.5271,21.11,22,42.07,0,111.1,13.14,21.94,339.4
"2010-08-25 00:52:00",101205,2.663,17.99,2.271,0.315,19.66,108.5268,21.11,21.98,42.17,0,111.1,13.14,21.94,340.0
"2010-08-25 00:52:30",101206,2.493,21.92,5.33,0.412,19.75,108.5173,21.09,21.98,42.01,0,111.1,13.14,21.91,343.9
"2010-08-25 00:53:00",101207,2.605,21.18,3.978,0.255,19.78,108.5005,21.04,21.98,42.21,0,111.1,13.14,21.87,343.2
"2010-08-25 00:53:30",101208,2.383,15.16,3.221,0.507,19.81,108.4937,21.03,21.95,42.54,0,111.1,13.14,21.85,337.2
"2010-08-25 00:54:00",101209,2.634,18.76,2.953,0.338,19.86,108.4882,21.01,21.93,42.31,0,111.1,13.14,21.84,340.8
"2010-08-25 00:54:30",101210,2.417,13.72,3.756,0.318,19.89,108.4715,20.97,21.94,42.7,0,111.1,13.14,21.79,335.7
"2010-08-25 00:55:00",101211,2.226,11.35,4.179,0.365,19.91,108.4686,20.96,21.91,43.31,0,111.1,13.14,21.79,333.4
"2010-08-25 00:55:30",101212,2.463,15.69,2.182,0.34,19.87,108.4665,20.96,21.88,43.84,0,111.1,13.14,21.78,337.7
"2010-08-25 00:56:00",101213,2.612,14.73,3.03,0.251,19.91,108.4502,20.91,21.86,43.74,0,111.1,13.14,21.74,336.7
"2010-08-25 00:56:30",101214,2.339,12.15,3.337,0.378,19.93,108.4504,20.92,21.83,43.45,0,111.1,13.14,21.74,334.1
"2010-08-25 00:57:00",101215,2.479,7.775,4.941,0.263,19.86,108.4387,20.89,21.79,44.27,0,111.1,13.15,21.71,329.8
"2010-08-25 00:57:30",101216,2.085,5.58,3.882,0.335,19.84,108.4203,20.84,21.76,44.1,0,111.1,13.15,21.66,327.6
"2010-08-25 00:58:00",101217,2.57,9.04,3.628,0.333,19.75,108.42,20.84,21.75,43.88,0,111,13.15,21.66,331.0
"2010-08-25 00:58:30",101218,2.425,5.148,5.253,0.289,19.75,108.42,20.84,21.74,43.8,0,111.1,13.15,21.66,327.1
"2010-08-25 00:59:00",101219,2.729,8.14,4.36,0.32,19.72,108.4225,20.84,21.72,43.31,0,111,13.15,21.67,330.1
"2010-08-25 00:59:30",101220,2.797,2.906,3.14,0.313,19.69,108.4252,20.85,21.72,43.35,0,111,13.15,21.68,324.9
"2010-08-25 01:00:00",101221,3.059,6.36,2.331,0.488,19.68,108.427,20.86,21.71,43.21,0,111,13.15,21.68,328.4
"2010-08-25 01:00:30",101222,2.662,8.62,2.305,0.433,19.69,108.427,20.86,21.7,43.07,0,111,13.15,21.68,330.6
"2010-08-25 01:01:00",101223,2.624,4.605,3.067,0.25,19.7,108.4289,20.86,21.71,42.82,0,111,13.15,21.68,326.6
"2010-08-25 01:01:30",101224,2.655,4.381,2.803,0.395,19.72,108.4289,20.86,21.71,42.65,0,111,13.15,21.68,326.4
"2010-08-25 01:02:00",101225,2.32,4.607,4.152,0.239,19.69,108.4303,20.86,21.71,42.65,0,111,13.15,21.69,326.6
"2010-08-25 01:02:30",101226,2.266,5.519,2.967,0.191,19.66,108.4305,20.86,21.72,42.71,0,111,13.15,21.69,327.5
"2010-08-25 01:03:00",101227,2.182,7.648,3.685,0.168,19.64,108.4291,20.86,21.74,42.75,0,111,13.15,21.69,329.6
"2010-08-25 01:03:30",101228,2.312,6.121,3.647,0.294,19.66,108.4289,20.86,21.73,42.72,0,111,13.15,21.68,328.1
"2010-08-25 01:04:00",101229,2.638,8.22,4.95,0.233,19.7,108.4289,20.86,21.74,42.64,0,111,13.14,21.68,330.2
"2010-08-25 01:04:30",101230,2.714,15.9,2.364,0.271,19.72,108.4291,20.86,21.73,42.66,0,111,13.14,21.69,337.9
"2010-08-25 01:05:00",101231,2.611,14.59,3.395,0.331,19.75,108.4289,20.86,21.73,42.62,0,111,13.14,21.68,336.6
"2010-08-25 01:05:30",101232,2.443,9.44,3.144,0.331,19.76,108.4289,20.86,21.73,42.53,0,111,13.14,21.68,331.4
"2010-08-25 01:06:00",101233,2.257,9.39,3.945,0.256,19.78,108.4292,20.86,21.73,42.4,0,111,13.15,21.69,331.4
"2010-08-25 01:06:30",101234,2.58,12.3,3.677,0.388,19.76,108.4292,20.86,21.74,42.38,0,111,13.15,21.69,334.3
"2010-08-25 01:07:00",101235,2.803,14.38,4.094,0.246,19.76,108.4292,20.86,21.74,42.29,0,111,13.15,21.69,336.4
"2010-08-25 01:07:30",101236,2.271,12.05,2.879,0.269,19.77,108.431,20.87,21.74,42.49,0,111,13.15,21.69,334.0
"2010-08-25 01:08:00",101237,2.284,4.573,4.798,0.247,19.8,108.4307,20.86,21.75,42.55,0,111,13.15,21.69,326.6
"2010-08-25 01:08:30",101238,2.584,10.97,5.54,0.409,19.81,108.431,20.87,21.74,42.32,0,111,13.15,21.69,333.0
"2010-08-25 01:09:00",101239,2.555,8.68,5.654,0.393,19.81,108.4316,20.87,21.73,42.5,0,111,13.15,21.69,330.7
"2010-08-25 01:09:30",101240,2.382,11.9,3.96,0.505,19.92,108.4313,20.87,21.73,42.34,0,111,13.15,21.69,333.9
"2010-08-25 01:10:00",101241,2.142,7.922,4.531,0.232,19.89,108.4341,20.87,21.73,42.32,0,111,13.16,21.70,329.9
"2010-08-25 01:10:30",101242,2.468,4.314,2.674,0.24,19.88,108.4356,20.88,21.72,42.14,0,111,13.16,21.70,326.3
"2010-08-25 01:11:00",101243,2.089,6.408,4.114,0.365,19.87,108.4254,20.85,21.73,42.09,0,111,13.16,21.68,328.4
"2010-08-25 01:11:30",101244,2.281,4.618,5.07,0.311,19.82,108.4257,20.85,21.74,42.43,0,111,13.16,21.68,326.6
"2010-08-25 01:12:00",101245,2.516,13.78,3.72,0.362,19.81,108.4251,20.85,21.72,42.37,0,111,13.16,21.68,335.8
"2010-08-25 01:12:30",101246,2.519,13.53,3.429,0.318,19.8,108.4219,20.84,21.72,42.15,0,111,13.16,21.67,335.5
"2010-08-25 01:13:00",101247,2.469,13.35,3.163,0.35,19.79,108.4222,20.84,21.71,42.28,0,111,13.16,21.67,335.4
"2010-08-25 01:13:30",101248,2.609,14.38,3.494,0.372,19.85,108.4222,20.84,21.72,42.27,0,111,13.16,21.67,336.4
"2010-08-25 01:14:00",101249,2.354,10.3,4.591,0.291,19.84,108.4226,20.84,21.69,42.73,0,111,13.16,21.67,332.3
"2010-08-25 01:14:30",101250,2.445,12.86,2.787,0.254,19.88,108.4238,20.85,21.7,42.59,0,111,13.16,21.67,334.9
"2010-08-25 01:15:00",101251,2.637,13.75,2.888,0.331,19.89,108.4241,20.85,21.69,42.41,0,111,13.16,21.67,335.8
"2010-08-25 01:15:30",101252,2.399,12.71,3.523,0.313,19.86,108.4266,20.85,21.67,42.61,0,110.9,13.16,21.68,334.7
"2010-08-25 01:16:00",101253,2.758,15.94,2.455,0.299,19.9,108.4265,20.85,21.68,42.04,0,111,13.16,21.68,337.9
"2010-08-25 01:16:30",101254,3.172,17.65,1.292,0.282,19.9,108.4305,20.86,21.67,42.02,0,110.9,13.16,21.69,339.6
"2010-08-25 01:17:00",101255,2.805,15.25,2.305,0.336,19.87,108.4314,20.87,21.68,42.16,0,110.9,13.16,21.69,337.2
"2010-08-25 01:17:30",101256,2.542,13.33,3.019,0.315,19.88,108.4297,20.86,21.68,42.22,0,110.9,13.16,21.69,335.3
"2010-08-25 01:18:00",101257,2.642,13.73,3.385,0.39,19.92,108.423,20.84,21.67,42.22,0,110.9,13.16,21.67,335.7
"2010-08-25 01:18:30",101258,3.035,17.08,1.76,0.243,20,108.4185,20.83,21.68,41.73,0,110.9,13.16,21.66,339.1
"2010-08-25 01:19:00",101259,2.976,16.92,1.966,0.208,20.03,108.4199,20.84,21.68,41.58,0,110.9,13.16,21.66,338.9
"2010-08-25 01:19:30",101260,2.747,16.04,2.284,0.286,20.03,108.4221,20.84,21.68,41.4,0,110.9,13.17,21.67,338.0
"2010-08-25 01:20:00",101261,2.815,16.97,1.966,0.207,20.04,108.4196,20.84,21.68,41.31,0,110.9,13.16,21.66,339.0
"2010-08-25 01:20:30",101262,2.525,15.16,3.132,0.349,20.06,108.4174,20.83,21.69,41.17,0,110.9,13.16,21.66,337.2
"2010-08-25 01:21:00",101263,2.336,13.16,3.323,0.259,20.1,108.4157,20.83,21.69,41.1,0,110.9,13.16,21.65,335.2
"2010-08-25 01:21:30",101264,2.317,10.75,4.578,0.227,20.14,108.416,20.83,21.68,41.04,0,110.9,13.16,21.65,332.8
"2010-08-25 01:22:00",101265,2.637,16.01,3.903,0.438,20.19,108.4162,20.83,21.69,40.93,0,110.9,13.16,21.65,338.0
"2010-08-25 01:22:30",101266,2.377,15.14,3.265,0.305,20.12,108.4146,20.82,21.7,40.91,0,110.9,13.16,21.65,337.1
"2010-08-25 01:23:00",101267,2.097,7.958,3.849,0.209,20.1,108.4084,20.81,21.7,40.99,0,110.9,13.16,21.63,330.0
"2010-08-25 01:23:30",101268,2.178,6.888,5.023,0.332,20.14,108.4005,20.79,21.7,41.1,0,110.9,13.16,21.61,328.9
"2010-08-25 01:24:00",101269,2.889,17.34,2.346,0.286,20.2,108.4027,20.79,21.7,40.81,0,110.9,13.16,21.62,339.3
"2010-08-25 01:24:30",101270,2.502,15.49,1.964,0.182,20.05,108.4174,20.83,21.7,40.7,0,110.9,13.16,21.66,337.5
"2010-08-25 01:25:00",101271,2.299,14.02,3.001,0.292,20.06,108.4158,20.83,21.7,40.71,0,110.9,13.17,21.65,336.0
"2010-08-25 01:25:30",101272,1.918,9.9,3.772,0.232,20,108.41,20.81,21.71,40.83,0,110.9,13.17,21.64,331.9
"2010-08-25 01:26:00",101273,2.02,7.717,3.807,0.175,20,108.405,20.8,21.71,40.75,0,110.9,13.17,21.62,329.7
"2010-08-25 01:26:30",101274,2.045,4.908,2.698,0.195,20.01,108.4059,20.8,21.7,40.76,0,110.9,13.17,21.63,326.9
"2010-08-25 01:27:00",101275,2.041,7.907,4.251,0.189,20.03,108.4102,20.81,21.7,40.62,0,110.9,13.17,21.64,329.9
"2010-08-25 01:27:30",101276,2.32,12.46,2.314,0.197,20.03,108.4141,20.82,21.7,40.45,0,110.9,13.17,21.65,334.5
"2010-08-25 01:28:00",101277,2.239,9.29,2.971,0.168,20.03,108.422,20.84,21.7,40.41,0,110.9,13.17,21.67,331.3
"2010-08-25 01:28:30",101278,2.163,7.687,2.924,0.151,20.03,108.4236,20.85,21.69,40.44,0,110.9,13.17,21.67,329.7
"2010-08-25 01:29:00",101279,2.146,12.19,3.075,0.264,20.01,108.4251,20.85,21.69,40.43,0,110.9,13.18,21.68,334.2
"2010-08-25 01:29:30",101280,2.718,16.41,1.914,0.184,20.12,108.4257,20.85,21.68,40.48,0,110.9,13.17,21.68,338.4
"2010-08-25 01:30:00",101281,2.793,16.44,1.654,0.258,20.13,108.426,20.85,21.69,40.49,0,110.9,13.18,21.68,338.4
"2010-08-25 01:30:30",101282,2.611,15.01,2.386,0.247,20.09,108.4269,20.86,21.7,40.44,0,110.9,13.18,21.68,337.0
"2010-08-25 01:31:00",101283,2.335,11.36,3.261,0.216,20.05,108.4283,20.86,21.68,40.99,0,110.9,13.18,21.68,333.4
"2010-08-25 01:31:30",101284,2.466,10.5,4.032,0.239,20.09,108.4159,20.83,21.68,40.92,0,110.9,13.18,21.65,332.5
"2010-08-25 01:32:00",101285,2.534,13.85,2.746,0.222,20.09,108.4033,20.79,21.67,40.81,0,110.9,13.18,21.62,335.9
"2010-08-25 01:32:30",101286,2.616,14.94,2.427,0.238,20.11,108.4005,20.79,21.68,41.05,0,110.9,13.18,21.61,336.9
"2010-08-25 01:33:00",101287,2.602,14.62,2.195,0.181,20.15,108.4008,20.79,21.65,40.94,0,110.9,13.18,21.61,336.6
"2010-08-25 01:33:30",101288,2.837,16.2,1.94,0.243,20.19,108.4008,20.79,21.64,40.71,0,110.9,13.18,21.61,338.2
"2010-08-25 01:34:00",101289,2.728,15.65,1.773,0.188,20.2,108.4008,20.79,21.65,40.74,0,110.9,13.18,21.61,337.6
"2010-08-25 01:34:30",101290,2.837,16.26,1.972,0.241,20.17,108.4008,20.79,21.65,40.61,0,110.9,13.18,21.61,338.3
"2010-08-25 01:35:00",101291,2.739,16.43,1.785,0.257,20.2,108.4008,20.79,21.64,40.51,0,110.9,13.18,21.61,338.4
"2010-08-25 01:35:30",101292,2.752,16.59,1.658,0.18,20.2,108.4008,20.79,21.63,40.45,0,110.9,13.18,21.61,338.6
"2010-08-25 01:36:00",101293,2.931,17.44,1.323,0.163,20.23,108.4008,20.79,21.65,40.36,0,110.9,13.19,21.61,339.4
"2010-08-25 01:36:30",101294,2.835,16.99,1.697,0.162,20.22,108.4008,20.79,21.65,40.31,0,110.9,13.19,21.61,339.0
"2010-08-25 01:37:00",101295,2.752,16.53,1.581,0.189,20.22,108.4008,20.79,21.66,40.3,0,110.9,13.18,21.61,338.5
"2010-08-25 01:37:30",101296,2.801,16.36,1.763,0.186,20.23,108.4008,20.79,21.64,40.24,0,110.9,13.18,21.61,338.4
"2010-08-25 01:38:00",101297,2.827,16.14,1.871,0.169,20.24,108.4008,20.79,21.65,40.27,0,110.9,13.18,21.61,338.1
"2010-08-25 01:38:30",101298,2.736,15.03,1.979,0.167,20.25,108.4008,20.79,21.64,40.3,0,110.9,13.17,21.61,337.0
"2010-08-25 01:39:00",101299,2.91,16.79,1.459,0.166,20.25,108.4008,20.79,21.64,40.27,0,110.9,13.18,21.61,338.8
"2010-08-25 01:39:30",101300,2.711,15.36,2.375,0.212,20.22,108.398,20.78,21.65,40.43,0,110.9,13.17,21.61,337.4
"2010-08-25 01:40:00",101301,2.838,15.6,2.296,0.197,20.25,108.3851,20.75,21.63,40.61,0,110.9,13.18,21.57,337.6
"2010-08-25 01:40:30",101302,3.008,17,1.623,0.171,20.26,108.3761,20.72,21.63,40.38,0,110.9,13.18,21.55,339.0
"2010-08-25 01:41:00",101303,3.111,17.74,1.133,0.161,20.24,108.3755,20.72,21.64,40.28,0,110.9,13.18,21.55,339.7
"2010-08-25 01:41:30",101304,3.437,18.78,1.035,0.13,20.28,108.375,20.72,21.63,40.14,0,110.9,13.18,21.55,340.8
"2010-08-25 01:42:00",101305,3.568,18.98,1.017,0.151,20.27,108.3779,20.73,21.63,40.04,0,110.9,13.18,21.55,341.0
"2010-08-25 01:42:30",101306,3.517,19.14,0.969,0.121,20.26,108.3855,20.75,21.63,40.01,0,110.9,13.19,21.57,341.1
"2010-08-25 01:43:00",101307,3.586,18.83,0.932,0.117,20.27,108.3934,20.77,21.63,39.97,0,110.9,13.19,21.59,340.8
"2010-08-25 01:43:30",101308,3.745,19.2,1.291,0.161,20.26,108.3918,20.76,21.64,40,0,110.9,13.19,21.59,341.2
"2010-08-25 01:44:00",101309,3.619,18.29,1.041,0.252,20.27,108.3893,20.76,21.65,40.02,0,110.9,13.19,21.58,340.3
"2010-08-25 01:44:30",101310,3.856,19.53,1.224,0.163,20.29,108.3883,20.76,21.65,40.04,0,110.9,13.19,21.58,341.5
"2010-08-25 01:45:00",101311,3.933,20.4,1.169,0.16,20.29,108.3925,20.77,21.64,40,0,110.9,13.19,21.59,342.4
"2010-08-25 01:45:30",101312,4.029,20.72,1.105,0.165,20.31,108.3967,20.78,21.64,39.98,0,110.9,13.19,21.60,342.7
"2010-08-25 01:46:00",101313,4.032,21.45,0.995,0.117,20.32,108.4098,20.81,21.65,39.95,0,110.9,13.19,21.64,343.5
"2010-08-25 01:46:30",101314,4.038,22.93,1.136,0.215,20.31,108.4171,20.83,21.66,39.91,0,110.9,13.19,21.65,344.9
"2010-08-25 01:47:00",101315,4.131,23.54,1.129,0.186,20.32,108.4219,20.84,21.66,39.82,0,110.9,13.19,21.67,345.5
"2010-08-25 01:47:30",101316,3.987,23.44,1.313,0.164,20.3,108.4273,20.86,21.66,39.72,0,110.8,13.19,21.68,345.4
"2010-08-25 01:48:00",101317,4.09,22.14,1.149,0.213,20.28,108.4313,20.87,21.69,39.66,0,110.8,13.19,21.69,344.1